QPF
0.02 0.02 0.02 0.02 0.01 0.01 0.02 0.03 0.06 0.07 0.09 0.11 0.08 0.06 0.06 0.05 0.05 0.04 0.03 0.03 0.04 0.08 0.11 0.12 0.09 0.08 0.08 0.05 0.04 0.05 0.04 0.04 0.03 0.01 0.02 0.03 0.03 0.02 0.02 0.03 0.02 0.02 0.02 0.01
0.02 0.01 0.01 0.02 0.01 0.01 0.01 0.02 0.04 0.06 0.08 0.07 0.06 0.05 0.04 0.04 0.04 0.04 0.04 0.04 0.06 0.07 0.10 0.11 0.10 0.07 0.05 0.05 0.05 0.05 0.05 0.06 0.03 0.01 0.02 0.03 0.03 0.03 0.02 0.03 0.02 0.02 0.01 0.02
0.03 0.01 0.03 0.05 0.02 0.02 0.01 0.02 0.03 0.07 0.07 0.04 0.04 0.04 0.04 0.04 0.03 0.04 0.05 0.06 0.07 0.07 0.09 0.10 0.09 0.08 0.06 0.05 0.06 0.06 0.06 0.06 0.04 0.02 0.02 0.02 0.02 0.02 0.02 0.03 0.03 0.03 0.03 0.03
0.04 0.05 0.09 0.08 0.03 0.02 0.02 0.02 0.02 0.03 0.02 0.02 0.02 0.02 0.03 0.03 0.03 0.03 0.04 0.05 0.06 0.06 0.07 0.08 0.07 0.07 0.06 0.07 0.07 0.07 0.07 0.06 0.04 0.02 0.02 0.03 0.03 0.03 0.03 0.03 0.04 0.04 0.04 0.03
0.06 0.09 0.10 0.06 0.02 0.03 0.04 0.05 0.03 0.03 0.02 0.02 0.02 0.02 0.03 0.02 0.01 0.02 0.03 0.03 0.04 0.05 0.05 0.06 0.05 0.05 0.07 0.07 0.06 0.07 0.07 0.06 0.04 0.02 0.02 0.03 0.03 0.03 0.04 0.04 0.05 0.04 0.03 0.03
0.07 0.11 0.14 0.10 0.03 0.02 0.04 0.08 0.04 0.02 0.01 0.01 0.02 0.04 0.04 0.02 0.02 0.04 0.04 0.03 0.02 0.02 0.03 0.04 0.04 0.06 0.10 0.11 0.10 0.09 0.07 0.06 0.04 0.04 0.03 0.03 0.03 0.03 0.03 0.04 0.05 0.04 0.03 0.02
0.07 0.11 0.13 0.04 0.01 0.02 0.08 0.09 0.03 0.02 0.02 0.02 0.04 0.04 0.02 0.02 0.03 0.04 0.03 0.02 0.02 0.02 0.04 0.04 0.05 0.07 0.11 0.13 0.11 0.07 0.06 0.04 0.03 0.02 0.02 0.03 0.03 0.04 0.04 0.03 0.03 0.03 0.04 0.03
0.06 0.09 0.09 0.03 0.02 0.04 0.05 0.02 0.01 0.01 0.01 0.01 0.02 0.02 0.03 0.03 0.03 0.02 0.02 0.03 0.03 0.05 0.07 0.07 0.07 0.08 0.10 0.09 0.07 0.04 0.05 0.04 0.03 0.02 0.02 0.02 0.03 0.04 0.04 0.04 0.04 0.03 0.03 0.03
0.04 0.06 0.04 0.02 0.02 0.01 0.01 0.01 0.01 0.01 0.01 0.01 0.01 0.02 0.03 0.03 0.03 0.03 0.02 0.02 0.04 0.05 0.06 0.07 0.08 0.08 0.08 0.08 0.06 0.05 0.06 0.07 0.04 0.02 0.02 0.03 0.03 0.02 0.03 0.03 0.03 0.03 0.02 0.02
0.02 0.02 0.01 0.01 0.03 0.01 0.01 0.01 0.01 0.00 0.00 0.00 0.01 0.03 0.03 0.03 0.03 0.03 0.02 0.03 0.04 0.04 0.04 0.04 0.04 0.04 0.06 0.05 0.05 0.07 0.09 0.06 0.04 0.03 0.03 0.03 0.03 0.02 0.02 0.02 0.03 0.02 0.01 0.01
0.03 0.01 0.01 0.01 0.01 0.01 0.01 0.01 0.00 0.00 0.00 0.00 0.02 0.03 0.02 0.03 0.03 0.03 0.03 0.03 0.04 0.04 0.04 0.03 0.03 0.04 0.04 0.05 0.07 0.10 0.08 0.05 0.04 0.03 0.03 0.03 0.02 0.01 0.01 0.01 0.01 0.01 0.01 0.01
0.03 0.01 0.01 0.01 0.01 0.00 0.00 0.00 0.00 0.00 0.00 0.01 0.02 0.02 0.02 0.02 0.02 0.02 0.03 0.03 0.03 0.04 0.04 0.04 0.04 0.04 0.03 0.03 0.05 0.07 0.07 0.05 0.04 0.04 0.04 0.03 0.02 0.02 0.01 0.00 0.00 0.00 0.00 0.00
0.01 0.01 0.00 0.00 0.00 0.00 0.00 0.00 0.00 0.00 0.00 0.01 0.01 0.01 0.01 0.01 0.02 0.02 0.03 0.04 0.04 0.04 0.03 0.03 0.03 0.03 0.02 0.02 0.03 0.05 0.06 0.04 0.03 0.03 0.03 0.02 0.02 0.02 0.02 0.01 0.00 0.00 0.00 0.00
0.01 0.01 0.01 0.01 0.01 0.00 0.00 0.00 0.00 0.00 0.00 0.00 0.01 0.01 0.01 0.01 0.02 0.02 0.03 0.03 0.03 0.02 0.02 0.02 0.02 0.02 0.01 0.01 0.02 0.04 0.03 0.02 0.02 0.03 0.02 0.01 0.01 0.01 0.01 0.01 0.01 0.01 0.00 0.00
0.01 0.01 0.01 0.01 0.00 0.00 0.00 0.00 0.00 0.01 0.00 0.01 0.01 0.01 0.01 0.01 0.01 0.01 0.01 0.01 0.01 0.01 0.01 0.01 0.02 0.02 0.01 0.01 0.02 0.02 0.02 0.02 0.02 0.02 0.02 0.01 0.01 0.01 0.01 0.00 0.01 0.01 0.01 0.00
0.01 0.01 0.00 0.00 0.00 0.00 0.00 0.00 0.01 0.01 0.01 0.01 0.01 0.01 0.01 0.01 0.01 0.01 0.01 0.01 0.01 0.02 0.01 0.01 0.02 0.01 0.01 0.01 0.02 0.01 0.01 0.01 0.01 0.02 0.02 0.01 0.00 0.01 0.01 0.01 0.01 0.01 0.01 0.00
0.01 0.01 0.00 0.00 0.00 0.00 0.00 0.00 0.00 0.01 0.01 0.01 0.01 0.01 0.01 0.00 0.00 0.00 0.00 0.01 0.01 0.01 0.01 0.01 0.01 0.01 0.01 0.01 0.01 0.01 0.00 0.00 0.00 0.01 0.02 0.01 0.01 0.01 0.00 0.00 0.01 0.01 0.01 0.00
0.00 0.00 0.00 0.00 0.00 0.00 0.00 0.00 0.01 0.01 0.01 0.00 0.00 0.00 0.00 0.00 0.00 0.00 0.00 0.00 0.00 0.01 0.01 0.01 0.01 0.00 0.00 0.00 0.01 0.00 0.00 0.00 0.00 0.01 0.01 0.01 0.01 0.01 0.01 0.01 0.01 0.01 0.01 0.00
0.00 0.00 0.00 0.00 0.00 0.00 0.00 0.01 0.01 0.01 0.00 0.00 0.00 0.00 0.00 0.00 0.00 0.00 0.01 0.01 0.01 0.01 0.01 0.00 0.00 0.00 0.00 0.00 0.00 0.00 0.00 0.00 0.00 0.00 0.00 0.00 0.00 0.00 0.01 0.01 0.00 0.00 0.00 0.01
0.00 0.00 0.00 0.00 0.00 0.00 0.00 0.00 0.00 0.00 0.00 0.00 0.00 0.00 0.00 0.00 0.00 0.00 0.00 0.01 0.01 0.01 0.01 0.00 0.00 0.00 0.00 0.00 0.00 0.00 0.00 0.00 0.00 0.00 0.00 0.00 0.00 0.00 0.00 0.01 0.00 0.00 0.00 0.00
0.00 0.00 0.00 0.00 0.00 0.00 0.00 0.00 0.00 0.00 0.00 0.00 0.00 0.00 0.00 0.00 0.00 0.00 0.00 0.01 0.01 0.00 0.00 0.00 0.00 0.00 0.00 0.00 0.00 0.00 0.00 0.00 0.00 0.00 0.00 0.00 0.00 0.00 0.00 0.00 0.00 0.00 0.00 0.00
0.00 0.00 0.00 0.00 0.00 0.00 0.00 0.00 0.00 0.00 0.00 0.00 0.00 0.00 0.00 0.00 0.00 0.00 0.00 0.00 0.00 0.00 0.00 0.00 0.00 0.00 0.00 0.00 0.00 0.00 0.00 0.00 0.00 0.00 0.00 0.00 0.00 0.00 0.00 0.00 0.00 0.00 0.00 0.00
0.00 0.00 0.00 0.00 0.00 0.00 0.00 0.00 0.00 0.00 0.00 0.00 0.00 0.00 0.00 0.00 0.00 0.00 0.00 0.00 0.00 0.00 0.00 0.00 0.00 0.00 0.00 0.00 0.00 0.00 0.00 0.00 0.00 0.00 0.00 0.00 0.00 0.00 0.00 0.00 0.00 0.00 0.00 0.00
0.00 0.00 0.00 0.00 0.00 0.00 0.00 0.00 0.00 0.00 0.00 0.00 0.00 0.00 0.00 0.00 0.00 0.00 0.00 0.00 0.00 0.00 0.00 0.00 0.00 0.00 0.00 0.00 0.00 0.00 0.00 0.00 0.00 0.00 0.00 0.00 0.00 0.00 0.00 0.00 0.00 0.00 0.00 0.00
0.00 0.00 0.00 0.00 0.00 0.00 0.00 0.00 0.00 0.00 0.00 0.00 0.00 0.00 0.00 0.00 0.00 0.00 0.00 0.00 0.00 0.00 0.00 0.00 0.00 0.00 0.00 0.00 0.00 0.00 0.00 0.00 0.00 0.00 0.00 0.00 0.00 0.00 0.00 0.00 0.00 0.00 0.00 0.00
0.00 0.00 0.00 0.00 0.00 0.00 0.00 0.00 0.00 0.00 0.00 0.00 0.00 0.00 0.00 0.00 0.00 0.00 0.00 0.00 0.00 0.00 0.00 0.00 0.00 0.00 0.00 0.00 0.00 0.00 0.00 0.00 0.00 0.00 0.00 0.00 0.00 0.00 0.00 0.00 0.00 0.00 0.00 0.00
0.00 0.00 0.00 0.00 0.00 0.00 0.00 0.00 0.00 0.00 0.00 0.00 0.00 0.00 0.00 0.00 0.00 0.00 0.00 0.00 0.00 0.00 0.00 0.00 0.00 0.00 0.00 0.00 0.00 0.00 0.00 0.00 0.00 0.00 0.00 0.00 0.00 0.00 0.00 0.00 0.00 0.00 0.00 0.00
MSLP
1013.91 1014.07 1014.16 1014.23 1014.30 1014.40 1014.55 1014.76 1015.03 1015.35 1015.70 1016.08 1016.48 1016.89 1017.32 1017.75 1018.20 1018.66 1019.12 1019.56 1019.97 1020.35 1020.66 1020.91 1021.10 1021.21 1021.27 1021.27 1021.24 1021.19 1021.12 1021.04 1020.95 1020.85 1020.75 1020.64 1020.53 1020.42 1020.31 1020.20 1020.11 1020.03 1019.97 1019.94
1014.68 1014.90 1015.04 1015.11 1015.14 1015.18 1015.25 1015.38 1015.59 1015.86 1016.21 1016.62 1017.08 1017.58 1018.09 1018.61 1019.12 1019.62 1020.08 1020.51 1020.89 1021.21 1021.47 1021.68 1021.82 1021.90 1021.93 1021.90 1021.83 1021.73 1021.60 1021.44 1021.28 1021.11 1020.94 1020.79 1020.66 1020.55 1020.48 1020.43 1020.40 1020.40 1020.41 1020.42
1015.28 1015.58 1015.76 1015.86 1015.89 1015.89 1015.91 1015.97 1016.11 1016.33 1016.65 1017.05 1017.53 1018.06 1018.62 1019.18 1019.73 1020.25 1020.72 1021.13 1021.49 1021.78 1022.02 1022.19 1022.31 1022.38 1022.39 1022.34 1022.25 1022.10 1021.93 1021.72 1021.51 1021.29 1021.08 1020.91 1020.78 1020.70 1020.67 1020.68 1020.72 1020.78 1020.84 1020.89
1015.68 1016.05 1016.29 1016.42 1016.46 1016.44 1016.42 1016.44 1016.52 1016.69 1016.96 1017.34 1017.80 1018.33 1018.89 1019.47 1020.03 1020.55 1021.01 1021.42 1021.76 1022.04 1022.26 1022.42 1022.53 1022.59 1022.59 1022.54 1022.44 1022.29 1022.10 1021.87 1021.64 1021.41 1021.20 1021.04 1020.93 1020.88 1020.90 1020.96 1021.06 1021.18 1021.28 1021.35
1015.90 1016.31 1016.60 1016.76 1016.81 1016.80 1016.76 1016.74 1016.77 1016.90 1017.13 1017.47 1017.91 1018.42 1018.97 1019.53 1020.07 1020.58 1021.04 1021.43 1021.76 1022.02 1022.23 1022.39 1022.50 1022.55 1022.56 1022.52 1022.43 1022.29 1022.11 1021.91 1021.69 1021.48 1021.31 1021.19 1021.12 1021.13 1021.19 1021.31 1021.45 1021.60 1021.73 1021.81
1015.96 1016.40 1016.71 1016.89 1016.96 1016.95 1016.90 1016.87 1016.89 1016.99 1017.19 1017.50 1017.91 1018.39 1018.92 1019.45 1019.98 1020.46 1020.89 1021.26 1021.57 1021.82 1022.01 1022.16 1022.26 1022.32 1022.35 1022.32 1022.26 1022.16 1022.02 1021.86 1021.70 1021.55 1021.44 1021.38 1021.37 1021.44 1021.55 1021.71 1021.89 1022.06 1022.20 1022.29
1015.91 1016.35 1016.67 1016.86 1016.94 1016.94 1016.90 1016.88 1016.90 1017.00 1017.20 1017.50 1017.89 1018.35 1018.85 1019.36 1019.85 1020.30 1020.70 1021.03 1021.30 1021.52 1021.69 1021.82 1021.91 1021.98 1022.02 1022.02 1022.00 1021.95 1021.87 1021.79 1021.70 1021.63 1021.60 1021.61 1021.68 1021.80 1021.96 1022.16 1022.36 1022.55 1022.69 1022.77
1015.81 1016.24 1016.54 1016.73 1016.81 1016.83 1016.82 1016.82 1016.87 1016.99 1017.21 1017.52 1017.91 1018.36 1018.84 1019.32 1019.77 1020.18 1020.54 1020.82 1021.05 1021.23 1021.37 1021.47 1021.55 1021.62 1021.67 1021.70 1021.72 1021.73 1021.72 1021.72 1021.72 1021.74 1021.79 1021.88 1022.01 1022.19 1022.39 1022.61 1022.83 1023.02 1023.16 1023.24
1015.72 1016.10 1016.38 1016.55 1016.64 1016.68 1016.70 1016.75 1016.85 1017.02 1017.28 1017.62 1018.02 1018.47 1018.94 1019.39 1019.81 1020.17 1020.47 1020.71 1020.89 1021.02 1021.11 1021.19 1021.25 1021.31 1021.36 1021.42 1021.49 1021.55 1021.61 1021.69 1021.77 1021.87 1022.00 1022.16 1022.34 1022.56 1022.78 1023.02 1023.24 1023.43 1023.57 1023.65
1015.65 1015.99 1016.23 1016.38 1016.48 1016.54 1016.61 1016.71 1016.87 1017.11 1017.42 1017.80 1018.23 1018.69 1019.14 1019.57 1019.95 1020.27 1020.52 1020.70 1020.82 1020.91 1020.96 1021.01 1021.05 1021.10 1021.17 1021.25 1021.34 1021.45 1021.57 1021.71 1021.86 1022.02 1022.20 1022.41 1022.63 1022.86 1023.10 1023.33 1023.54 1023.73 1023.87 1023.96
1015.61 1015.89 1016.10 1016.24 1016.34 1016.43 1016.55 1016.71 1016.94 1017.24 1017.61 1018.04 1018.50 1018.97 1019.41 1019.82 1020.16 1020.44 1020.64 1020.77 1020.85 1020.90 1020.92 1020.94 1020.97 1021.02 1021.09 1021.18 1021.30 1021.44 1021.60 1021.78 1021.96 1022.16 1022.37 1022.60 1022.82 1023.05 1023.28 1023.50 1023.70 1023.87 1024.01 1024.11
1015.57 1015.81 1015.98 1016.10 1016.22 1016.34 1016.51 1016.73 1017.03 1017.39 1017.82 1018.28 1018.77 1019.24 1019.68 1020.06 1020.37 1020.61 1020.78 1020.88 1020.93 1020.95 1020.96 1020.97 1020.99 1021.04 1021.12 1021.22 1021.36 1021.51 1021.69 1021.87 1022.07 1022.27 1022.48 1022.70 1022.91 1023.12 1023.32 1023.52 1023.69 1023.85 1023.98 1024.09
1015.50 1015.70 1015.84 1015.96 1016.09 1016.25 1016.46 1016.74 1017.09 1017.50 1017.97 1018.47 1018.97 1019.44 1019.87 1020.23 1020.52 1020.73 1020.88 1020.96 1021.00 1021.01 1021.02 1021.04 1021.07 1021.13 1021.22 1021.34 1021.47 1021.63 1021.80 1021.97 1022.16 1022.34 1022.52 1022.70 1022.88 1023.06 1023.23 1023.39 1023.54 1023.68 1023.80 1023.90
1015.37 1015.54 1015.67 1015.79 1015.94 1016.13 1016.38 1016.70 1017.10 1017.55 1018.04 1018.56 1019.06 1019.53 1019.94 1020.29 1020.56 1020.76 1020.89 1020.97 1021.02 1021.05 1021.08 1021.12 1021.18 1021.25 1021.35 1021.47 1021.61 1021.75 1021.90 1022.05 1022.20 1022.35 1022.49 1022.63 1022.76 1022.89 1023.02 1023.15 1023.28 1023.39 1023.50 1023.60
1015.16 1015.31 1015.45 1015.58 1015.75 1015.97 1016.25 1016.61 1017.03 1017.50 1018.01 1018.53 1019.02 1019.48 1019.88 1020.21 1020.47 1020.67 1020.81 1020.91 1020.98 1021.04 1021.10 1021.17 1021.26 1021.36 1021.48 1021.60 1021.73 1021.85 1021.97 1022.09 1022.19 1022.29 1022.38 1022.47 1022.56 1022.65 1022.75 1022.85 1022.95 1023.05 1023.14 1023.23
1014.88 1015.04 1015.18 1015.34 1015.53 1015.78 1016.09 1016.46 1016.90 1017.38 1017.88 1018.38 1018.87 1019.31 1019.69 1020.02 1020.27 1020.48 1020.64 1020.76 1020.87 1020.96 1021.07 1021.18 1021.29 1021.42 1021.55 1021.67 1021.79 1021.89 1021.98 1022.06 1022.12 1022.17 1022.21 1022.26 1022.31 1022.37 1022.44 1022.51 1022.59 1022.68 1022.76 1022.84
1014.56 1014.74 1014.90 1015.09 1015.31 1015.57 1015.90 1016.28 1016.72 1017.19 1017.68 1018.16 1018.63 1019.05 1019.42 1019.74 1020.00 1020.22 1020.39 1020.55 1020.69 1020.83 1020.97 1021.12 1021.27 1021.41 1021.55 1021.68 1021.78 1021.86 1021.92 1021.95 1021.97 1021.98 1021.99 1022.00 1022.02 1022.06 1022.10 1022.16 1022.24 1022.31 1022.39 1022.45
1014.25 1014.45 1014.65 1014.85 1015.09 1015.38 1015.71 1016.09 1016.51 1016.97 1017.43 1017.90 1018.33 1018.74 1019.10 1019.41 1019.68 1019.91 1020.11 1020.30 1020.47 1020.65 1020.82 1021.00 1021.17 1021.33 1021.47 1021.59 1021.68 1021.74 1021.77 1021.77 1021.76 1021.74 1021.71 1021.70 1021.70 1021.72 1021.75 1021.81 1021.87 1021.94 1022.01 1022.06
1013.98 1014.21 1014.44 1014.67 1014.92 1015.21 1015.53 1015.90 1016.30 1016.73 1017.17 1017.61 1018.02 1018.41 1018.76 1019.07 1019.35 1019.59 1019.81 1020.02 1020.22 1020.42 1020.61 1020.81 1020.99 1021.16 1021.30 1021.41 1021.49 1021.53 1021.54 1021.51 1021.47 1021.43 1021.38 1021.35 1021.33 1021.34 1021.37 1021.41 1021.47 1021.54 1021.60 1021.64
1013.79 1014.05 1014.29 1014.53 1014.78 1015.06 1015.37 1015.72 1016.09 1016.49 1016.90 1017.31 1017.70 1018.08 1018.42 1018.73 1019.01 1019.26 1019.49 1019.71 1019.93 1020.14 1020.35 1020.55 1020.74 1020.91 1021.04 1021.15 1021.21 1021.24 1021.23 1021.18 1021.13 1021.06 1020.99 1020.94 1020.91 1020.90 1020.92 1020.96 1021.02 1021.07 1021.12 1021.15
1013.68 1013.94 1014.19 1014.43 1014.67 1014.93 1015.21 1015.52 1015.87 1016.23 1016.61 1017.00 1017.37 1017.73 1018.06 1018.37 1018.65 1018.91 1019.14 1019.37 1019.59 1019.81 1020.02 1020.22 1020.40 1020.57 1020.70 1020.80 1020.85 1020.86 1020.84 1020.79 1020.71 1020.63 1020.54 1020.48 1020.43 1020.40 1020.41 1020.43 1020.47 1020.51 1020.55 1020.57
1013.62 1013.88 1014.11 1014.33 1014.55 1014.78 1015.03 1015.31 1015.61 1015.95 1016.30 1016.66 1017.02 1017.36 1017.68 1017.98 1018.26 1018.51 1018.75 1018.97 1019.19 1019.40 1019.60 1019.80 1019.98 1020.14 1020.27 1020.36 1020.41 1020.42 1020.38 1020.32 1020.23 1020.13 1020.03 1019.94 1019.88 1019.83 1019.81 1019.81 1019.83 1019.86 1019.88 1019.89
1013.58 1013.82 1014.03 1014.21 1014.39 1014.59 1014.80 1015.04 1015.32 1015.62 1015.95 1016.28 1016.62 1016.95 1017.26 1017.54 1017.81 1018.05 1018.28 1018.49 1018.70 1018.90 1019.09 1019.28 1019.45 1019.61 1019.73 1019.82 1019.87 1019.88 1019.85 1019.78 1019.68 1019.57 1019.46 1019.35 1019.25 1019.18 1019.14 1019.12 1019.12 1019.12 1019.13 1019.13
1013.51 1013.72 1013.89 1014.04 1014.19 1014.34 1014.52 1014.73 1014.97 1015.25 1015.55 1015.86 1016.18 1016.49 1016.78 1017.05 1017.29 1017.52 1017.72 1017.92 1018.10 1018.29 1018.47 1018.64 1018.81 1018.96 1019.09 1019.18 1019.24 1019.25 1019.22 1019.15 1019.05 1018.93 1018.80 1018.68 1018.57 1018.47 1018.41 1018.37 1018.35 1018.34 1018.34 1018.34
1013.41 1013.58 1013.71 1013.82 1013.93 1014.05 1014.20 1014.38 1014.60 1014.85 1015.12 1015.41 1015.70 1015.98 1016.25 1016.49 1016.71 1016.90 1017.08 1017.24 1017.40 1017.56 1017.73 1017.89 1018.05 1018.20 1018.33 1018.43 1018.49 1018.51 1018.49 1018.43 1018.33 1018.21 1018.08 1017.94 1017.81 1017.71 1017.63 1017.58 1017.55 1017.54 1017.55 1017.55
1013.25 1013.38 1013.47 1013.55 1013.63 1013.73 1013.86 1014.02 1014.21 1014.44 1014.69 1014.95 1015.21 1015.46 1015.69 1015.89 1016.07 1016.22 1016.36 1016.49 1016.62 1016.75 1016.89 1017.04 1017.19 1017.33 1017.46 1017.56 1017.63 1017.67 1017.65 1017.60 1017.51 1017.40 1017.27 1017.13 1017.01 1016.90 1016.83 1016.78 1016.76 1016.76 1016.78 1016.80
1013.05 1013.15 1013.22 1013.27 1013.34 1013.42 1013.53 1013.68 1013.86 1014.06 1014.29 1014.52 1014.74 1014.95 1015.13 1015.29 1015.42 1015.52 1015.61 1015.70 1015.79 1015.88 1016.00 1016.12 1016.25 1016.38 1016.51 1016.61 1016.69 1016.73 1016.72 1016.68 1016.60 1016.50 1016.38 1016.26 1016.15 1016.06 1016.00 1015.97 1015.97 1016.00 1016.05 1016.10
Thickness
5701 5705 5706 5703 5706 5710 5704 5699 5687 5679 5670 5666 5669 5668 5662 5656 5649 5643 5638 5634 5629 5623 5618 5613 5608 5604 5602 5599 5598 5596 5593 5590 5588 5587 5586 5585 5584 5583 5583 5583 5584 5583 5584 5584
5695 5706 5706 5700 5701 5702 5699 5695 5688 5679 5667 5669 5668 5664 5655 5648 5642 5635 5630 5625 5620 5614 5609 5605 5600 5597 5594 5591 5589 5587 5584 5581 5580 5579 5578 5576 5576 5575 5575 5574 5574 5574 5574 5574
5684 5700 5699 5682 5692 5694 5690 5689 5684 5669 5665 5666 5659 5653 5648 5642 5636 5629 5624 5618 5612 5606 5602 5598 5594 5590 5586 5584 5582 5579 5576 5574 5572 5571 5569 5568 5568 5566 5565 5565 5565 5564 5564 5563
5682 5683 5664 5676 5698 5695 5685 5678 5678 5671 5666 5661 5654 5649 5643 5638 5631 5624 5617 5611 5605 5600 5595 5591 5587 5583 5580 5577 5575 5572 5569 5567 5565 5564 5561 5560 5559 5558 5556 5556 5556 5555 5555 5555
5674 5667 5665 5677 5688 5688 5677 5665 5671 5666 5662 5658 5652 5642 5632 5629 5625 5618 5612 5605 5599 5594 5589 5585 5580 5577 5573 5570 5567 5565 5562 5559 5558 5556 5554 5552 5551 5550 5549 5548 5548 5548 5548 5548
5674 5661 5650 5662 5685 5691 5679 5655 5665 5663 5656 5652 5646 5632 5621 5621 5617 5611 5605 5598 5592 5588 5583 5577 5573 5569 5566 5562 5560 5557 5555 5553 5551 5549 5547 5545 5544 5543 5542 5541 5542 5542 5541 5541
5673 5662 5657 5672 5685 5685 5657 5647 5660 5659 5653 5646 5637 5630 5622 5616 5609 5603 5596 5591 5585 5580 5575 5570 5567 5563 5559 5556 5553 5552 5550 5548 5545 5543 5541 5539 5538 5537 5536 5536 5536 5535 5535 5534
5673 5658 5650 5675 5677 5663 5655 5661 5659 5654 5648 5640 5633 5626 5618 5611 5603 5597 5590 5584 5579 5574 5569 5565 5562 5558 5555 5551 5550 5548 5545 5542 5540 5538 5537 5535 5533 5533 5532 5531 5530 5530 5530 5529
5672 5661 5666 5671 5668 5667 5666 5659 5656 5651 5645 5638 5630 5622 5614 5606 5599 5593 5587 5580 5575 5570 5564 5560 5557 5555 5551 5548 5547 5544 5540 5538 5537 5535 5533 5531 5530 5529 5528 5528 5527 5527 5527 5526
5670 5666 5669 5670 5668 5666 5665 5659 5655 5650 5644 5637 5628 5620 5612 5604 5597 5590 5584 5577 5572 5566 5561 5557 5554 5552 5549 5547 5544 5540 5537 5535 5534 5532 5530 5528 5527 5526 5525 5524 5524 5524 5524 5523
5667 5667 5667 5666 5666 5664 5661 5658 5652 5647 5642 5635 5627 5618 5610 5602 5595 5589 5582 5576 5570 5565 5560 5556 5553 5550 5548 5545 5542 5538 5536 5534 5532 5531 5528 5526 5524 5520 5520 5517 5517 5517 5518 5519
5667 5671 5667 5661 5666 5664 5658 5653 5649 5644 5638 5632 5625 5617 5610 5602 5595 5588 5581 5575 5569 5564 5560 5556 5553 5550 5547 5545 5542 5538 5535 5533 5532 5531 5528 5527 5524 5520 5516 5516 5514 5514 5513 5513
5678 5678 5672 5669 5667 5663 5657 5653 5649 5643 5636 5629 5623 5617 5609 5601 5594 5588 5582 5575 5570 5565 5560 5556 5553 5550 5547 5545 5542 5539 5536 5534 5533 5531 5530 5528 5526 5524 5521 5516 5514 5514 5514 5514
5678 5674 5667 5665 5662 5661 5656 5652 5648 5642 5635 5629 5621 5616 5609 5601 5595 5588 5582 5577 5572 5567 5562 5558 5554 5550 5548 5546 5543 5540 5538 5535 5533 5532 5531 5531 5530 5529 5528 5525 5521 5519 5517 5516
5676 5673 5667 5665 5661 5657 5655 5650 5644 5638 5632 5626 5621 5615 5608 5601 5595 5590 5585 5580 5575 5570 5565 5561 5556 5553 5551 5548 5545 5542 5540 5538 5536 5535 5534 5534 5534 5533 5533 5531 5529 5527 5525 5522
5674 5671 5668 5663 5658 5655 5652 5648 5642 5637 5632 5626 5621 5615 5609 5604 5598 5593 5588 5583 5577 5572 5568 5564 5560 5557 5555 5551 5547 5545 5542 5539 5537 5538 5538 5538 5538 5537 5536 5535 5534 5533 5532 5531
5671 5666 5663 5660 5657 5655 5652 5649 5645 5640 5634 5627 5622 5617 5612 5606 5600 5595 5590 5586 5581 5577 5572 5568 5564 5561 5559 5555 5551 5550 5549 5546 5541 5541 5542 5542 5542 5542 5542 5541 5540 5539 5540 5538
5676 5672 5668 5664 5660 5656 5653 5651 5647 5642 5636 5632 5626 5620 5614 5608 5603 5598 5594 5589 5585 5580 5576 5573 5569 5566 5563 5560 5557 5555 5554 5552 5549 5548 5548 5547 5547 5547 5547 5546 5546 5546 5546 5544
5679 5674 5670 5667 5664 5659 5655 5651 5648 5644 5639 5635 5629 5622 5617 5612 5608 5603 5598 5593 5588 5584 5581 5578 5573 5570 5567 5565 5562 5560 5559 5558 5557 5555 5554 5552 5552 5553 5553 5553 5553 5553 5553 5552
5679 5676 5672 5669 5666 5662 5658 5654 5650 5645 5641 5637 5631 5626 5621 5616 5612 5607 5602 5598 5595 5593 5589 5584 5579 5576 5573 5571 5566 5566 5566 5565 5564 5562 5561 5560 5560 5560 5561 5561 5561 5561 5561 5560
5679 5676 5673 5670 5667 5664 5661 5657 5652 5647 5643 5640 5634 5629 5624 5621 5617 5612 5607 5603 5602 5599 5595 5589 5585 5583 5580 5578 5572 5573 5573 5572 5571 5569 5568 5567 5567 5567 5568 5568 5568 5568 5568 5569
5681 5678 5675 5672 5668 5665 5662 5659 5655 5651 5646 5642 5639 5635 5630 5625 5621 5618 5615 5611 5609 5604 5600 5597 5593 5590 5588 5583 5582 5581 5580 5579 5578 5576 5575 5574 5574 5574 5575 5575 5575 5576 5576 5576
5682 5679 5676 5673 5670 5666 5663 5661 5658 5654 5649 5645 5642 5638 5634 5631 5628 5624 5620 5619 5616 5609 5607 5606 5602 5597 5592 5588 5589 5588 5588 5586 5585 5584 5583 5582 5582 5582 5582 5582 5582 5582 5583 5583
5682 5679 5677 5675 5672 5667 5663 5662 5660 5657 5653 5650 5647 5644 5639 5636 5633 5632 5630 5625 5621 5614 5612 5610 5604 5600 5595 5595 5595 5595 5594 5594 5593 5592 5591 5591 5591 5590 5590 5590 5589 5589 5589 5590
5683 5680 5678 5674 5670 5669 5666 5664 5662 5658 5655 5653 5652 5649 5646 5643 5639 5638 5636 5631 5624 5618 5617 5612 5607 5603 5601 5602 5601 5601 5601 5601 5601 5600 5599 5597 5597 5596 5596 5596 5596 5595 5595 5595
5682 5680 5678 5675 5674 5671 5671 5669 5666 5663 5660 5658 5655 5654 5651 5648 5645 5643 5639 5635 5630 5624 5622 5620 5613 5607 5607 5608 5608 5608 5607 5606 5606 5604 5604 5603 5602 5602 5601 5601 5601 5600 5600 5600
5682 5681 5678 5677 5677 5677 5676 5674 5670 5668 5666 5662 5659 5658 5655 5652 5649 5646 5642 5639 5635 5630 5628 5626 5623 5620 5617 5615 5615 5614 5613 5612 5611 5610 5610 5609 5608 5607 5606 5606 5605 5604 5604 5604